User: anonymous   Login
Location: Newark
(39.0622°N, 106.5590°E)
Time: 15:03:58
(UTC+00:00)
Language:

Courier 1B Rocket - Orbit

View from above orbital plane
View from above orbital plane
View from above satellite
View from above satellite

Ground track
Ground track

The orbit data is extracted from the following two-line orbital elements,

1    59U 60013B   20019.17216815 +.00000118 +00000-0 +41284-4 0  9990
2    59 028.2473 270.1677 0189218 104.8630 257.2952 13.52973476926234
Epoch (UTC): 19 January 2020 04:07:55
Eccentricity: 0.0189218
inclination: 28.2473°
perigee height: 920 km
apogee height: 1202 km
right ascension of ascending node: 270.1677°
argument of perigee: 104.8630°
revolutions per day: 13.52973476
mean anomaly at epoch: 257.2952°
orbit number at epoch: 92623

The dashed part of the orbit path shows where the satellite is in the earth's shadow,  

DLR